sat.trackr.live / text

‹ back to catalog

STARLINK-36746

NORAD 67733 · 2026-026N

PAYLOAD ACTIVE UNKNOWN

§ Identity

Operator
Country
US
Launch date
2026-02-11
Launch site
AFWTR
Launch vehicle
Mass (kg)
RCS (m²)

Purposes: comms

External: N2YO · Heavens-Above · Gunter

§ Orbital elements

Epoch: 2026-05-25T03:29:46.523040Z

Period
93.91 min
Inclination
97.2850°
Eccentricity
0.0000881
Mean motion
15.33450698 rev/d
Perigee alt
464.9 km
Apogee alt
466.1 km
Semi-major
6,843.7 km
B*
3.4504e-4
RAAN
198.6748°
Arg perigee
96.3253°
Mean anomaly
263.8090°
Rev number
1,584

§ Raw data

STARLINK-367461 67733U 26026N   26145.14567735  .00011082  00000+0  34504-3 0  99982 67733  97.2850 198.6748 0000881  96.3253 263.8090 15.33450698 15847

JSON: /api/v1/satellites/67733 · /tle

For live sub-satellite position, see the globe view (requires WebGL).

§ Visibility from observer

Set your observer location to see the next 7 days of passes ≥ 10°. The values pass through the URL so the page stays shareable.

No JS? Fill the form by hand. The geolocation button needs JavaScript.